Вернуться в каталог

STARLINK-31248

АктивенСвязьVLEO
NORAD 58840·PAYLOAD·🇺🇸 United States

Запущен Jan 24, 2024 с Vandenberg Space Force Base

Loading…

Ближайшие Пролёты (ближайшие 24 часа)

TLE

СвежийSource: CelesTrak SupGP

Эпоха: Sep 14, 2026, 22:22 UTC

1 58840C 24017Q   26257.93243056  .00040760  00000+0  12049-2 0  2574
2 58840  53.1585  53.6638 0000996  69.8348 240.4999 15.34354422    18

Отслеживайте STARLINK-31248 в реальном времени с AllMySat

Download on the App Store